Regional Weather Roundup
Issued by NWS

Home | Current Version | Previous Version | Graphics & Text | Print | Product List | Glossary Off
Versions: 1 2 3 4 5 6 7 8 9 10 11 12 13 14 15 16 17 18 19 20 21 22 23 24 25 26 27 28 29 30 31 32 33 34 35 36 37 38 39 40 41 42 43 44 45 46 47 48 49 50

000
ASUS43 KMPX 220401
RWRMN
WEATHER ROUNDUP FOR MINNESOTA
NATIONAL WEATHER SERVICE TWIN CITIES/CHANHASSEN MN
1000 PM CST SUN DEC 21 2014


NOTE: "FAIR" INDICATES FEW OR NO CLOUDS BELOW 12,000 FEET WITH NO
SIGNIFICANT WEATHER AND/OR OBSTRUCTIONS TO VISIBILITY. N/A MEANS
CURRENT SKY AND/OR WEATHER CONDITIONS ARE NOT AVAILABLE.

MNZ060>063-068>070-220500-
   Twin Cities Metro

CITY           SKY/WX    TMP DP  RH WIND       PRES   REMARKS
TWIN CITIES    CLOUDY    38  35  89 S12       29.73S
ST PAUL        LGT RAIN  37  36  96 SE10      29.75S
CRYSTAL        CLOUDY    39  36  89 S12       29.71S
BLAINE         LGT RAIN  37  37 100 S10       29.72R
LAKEVILLE      CLOUDY    37  36  93 S10       29.72S
EDEN PRAIRIE   CLOUDY    38  36  92 S16G22    29.71S
SOUTH ST PAUL  CLOUDY    37  37  97 S6        29.74S
LAKE ELMO      LGT RAIN  36  36 100 S9        29.74F
$$
MNZ001>005-007-008-013>017-022>024-027-028-220500-
   Northwest Minnesota

CITY           SKY/WX    TMP DP  RH WIND       PRES   REMARKS
BEMIDJI        CLOUDY    32  32  99 SE10      29.61F FOG     WCI  24
HALLOCK        CLOUDY    34  30  86 CALM      29.58F
ROSEAU         CLOUDY    34  28  80 SE7       29.61S WCI  28
WARROAD        CLOUDY    34  28  80 SE7       29.62F WCI  28
THIEF RVR FALL CLOUDY    34  30  86 SE8       29.59S WCI  27
CROOKSTON      CLOUDY    34  32  93 SE8       29.59F WCI  27
FOSSTON        CLOUDY    30  30 100 SE8       29.59R WCI  23
DETROIT LAKES  CLOUDY    34  34 100 SE12      29.58F FOG     WCI  25
MOORHEAD       CLOUDY    36  36 100 SE12      29.57S FOG
PARK RAPIDS    FOG       34  33  96 SE13      29.60F VSB 1   WCI  25
MAHNOMEN       CLOUDY    33  32  95 S9        29.58S WCI  26
$$
MNZ006-009>011-018-025>026-220500-
   North Central Minnesota

CITY           SKY/WX    TMP DP  RH WIND       PRES   REMARKS
BAUDETTE       CLOUDY    33  30  88 S7        29.63S WCI  27
FLAG ISLAND    CLOUDY    32  30  93 S16       29.63S WCI  21
INTL FALLS     CLOUDY    32  30  92 SE9       29.66F WCI  24
WASKISH        CLOUDY    34  32  93 CALM      29.63S
BIG FORK       CLOUDY    34  32  93 SE6       29.66S FOG     WCI  29
LONGVILLE      CLOUDY    34  32  93 SE6       29.64F FOG     WCI  29
GRAND RAPIDS   CLOUDY    32  30  93 SE7       29.66S WCI  26
CRANE LAKE     CLOUDY    30  30 100 CALM      29.72S
ORR            CLOUDY    32  30  93 SE5       29.66S WCI  27
COOK           CLOUDY    32  30  93 CALM      29.69S
WALKER         CLOUDY    32  32 100 SE6       29.62F FOG     WCI  26
$$
MNZ012-019>021-037-220500-
   Northeast Minnesota

CITY           SKY/WX    TMP DP  RH WIND       PRES   REMARKS
DULUTH         CLOUDY    34  32  92 SE7       29.71S FOG     WCI  28
ELY            CLOUDY    32  30  93 S6        29.71S FOG     WCI  26
HIBBING        CLOUDY    33  31  92 SE8       29.68F FOG     WCI  26
EVELETH        CLOUDY    32  32 100 SE6       29.71S FOG     WCI  26
DULUTH HARBOR  CLOUDY    36  34  93 CALM      29.75F
SILVER BAY     CLOUDY    36  34  93 CALM      29.73F FOG
GRAND MARAIS     N/A     37  34  89 S14       29.79F
G MARAIS ARPRT MIX PCPN  30  28  93 S6        29.75F VSB<1/4 WCI  24
$$
MNZ029>031-032-039>041-046>048-054>057-064-220500-
   West Central Minnesota

CITY           SKY/WX    TMP DP  RH WIND       PRES   REMARKS
FERGUS FALLS   CLOUDY    36  36 100 SE14      29.59F FOG
WHEATON        CLOUDY    32  32 100 SE9       29.56S FOG     WCI  24
MORRIS         FOG       36  34  93 SE15      29.56S VSB 1/2
ALEXANDRIA     CLOUDY    35  34  96 SE13      29.60F FOG     WCI  26
ELBOW LAKE     CLOUDY    34  34 100 SE13      29.57S FOG     WCI  25
WADENA         MIX PCPN  34  34 100 SE9       29.60F WCI  26
GLENWOOD       CLOUDY    36  36 100 SE14      29.61F FOG
APPLETON       CLOUDY    37  36  93 SE10      29.57S FOG
BENSON         CLOUDY    36  36 100 S13       29.59F FOG
ORTONVILLE     CLOUDY    36  34  93 SE12      29.54S FOG
MADISON        PTCLDY    39  37  93 SE13      29.55F FOG
WILLMAR        DRIZZLE   36  36 100 SE9       29.64S
$$
MNZ033>034-036-042>043-049>051-058-059-220500-
   Central Minnesota

CITY           SKY/WX    TMP DP  RH WIND       PRES   REMARKS
ST CLOUD       CLOUDY    38  35  89 SE10      29.67S FOG
SAUK CENTRE    CLOUDY    34  34 100 SE10      29.63S FOG     WCI  26
PAYNESVILLE    LGT RAIN  33  33 100 E9        29.65S WCI  25
AITKIN         CLOUDY    36  30  80 SE9       29.66S HAZE
PINE RIVER     CLOUDY    34  34 100 S7        29.68S FOG     WCI  28
BRAINERD       LGT RAIN  34  34 100 S8        29.66S FOG     WCI  27
STAPLES        CLOUDY    34  34 100 SE6       29.63S FOG     WCI  29
LONG PRAIRIE   CLOUDY    32  32 100 SE10      29.63S FOG     WCI  24
LITTLE FALLS   MIX PCPN  34  32  93 SE9       29.66F WCI  26
LITCHFIELD     CLOUDY    37  37 100 S6        29.66S FOG
BUFFALO        CLOUDY    37  35  95 SE9       29.69F FOG
MAPLE LAKE     CLOUDY    37  37  99 S8        29.68F FOG
$$
MNZ037-044-045-052-053-220500-
   East Central Minnesota

CITY           SKY/WX    TMP DP  RH WIND       PRES   REMARKS
PRINCETON      DRIZZLE   37  36  93 SE8       29.70S
MORA           CLOUDY    32  32 100 SE6       29.72S WCI  26
CAMBRIDGE      DRIZZLE   37  30  75 SE6       29.69F
RUSH CITY      CLOUDY    35  35  98 S7        29.72S WCI  29
MOOSE LAKE     CLOUDY    34  32  93 S6        29.69S FOG     WCI  29
HINCKLEY       CLOUDY    36  36 100 CALM      29.72S FOG
CLOQUET        CLOUDY    34  34 100 SE5       29.71S FOG     WCI  30
MCGREGOR       CLOUDY    34  34 100 SE8       29.68F WCI  27
$$
MNZ071>073-080-081-089-090-097-098-220500-
   Southwest Minnesota

CITY           SKY/WX    TMP DP  RH WIND       PRES   REMARKS
MONTEVIDEO     CLOUDY    37  37 100 S12       29.59F
GRANITE FALLS  CLOUDY    37  35  94 SE12      29.60F
CANBY          CLOUDY    38  36  92 SE7       29.55S
MARSHALL       CLOUDY    37  34  87 S17       29.57F
REDWOOD FALLS  CLOUDY    38  36  92 SE14      29.62F
OLIVIA         CLOUDY    36  36 100 SE10      29.62F FOG
PIPESTONE      CLOUDY    36  36 100 S18       29.54S FOG
WINDOM         CLOUDY    37  37 100 S12G17    29.63S FOG
WORTHINGTON    CLOUDY    37 -11  12 S15G22    29.61F
JACKSON        CLOUDY    37  36  93 S14       29.64F FOG
TRACY          CLOUDY    39  37  94 S14G21    29.58F
SLAYTON        CLOUDY    36  36 100 S18       29.59S FOG
$$
MNZ065>067-074>077-082>085-091>093-220500-
   South Central Minnesota

CITY           SKY/WX    TMP DP  RH WIND       PRES   REMARKS
MANKATO        CLOUDY    37  34  87 S13       29.70S
NEW ULM        CLOUDY    37  37 100 S12       29.67S FOG
ST JAMES       CLOUDY    37  37 100 SE15      29.68S FOG
FAIRMONT       CLOUDY    37  34  87 S15       29.68S
GLENCOE        CLOUDY    38  38 100 SE10      29.68S FOG
FARIBAULT      CLOUDY    37  37 100 SE16      29.72F
OWATONNA       CLOUDY    37  36  93 S14G21    29.73S FOG
WASECA         CLOUDY    36  34  93 S16G23    29.73S
ALBERT LEA     FOG       37  37 100 S13       29.73S VSB 3/4
$$
MNZ078>079-086>088-094>096-220500-
   Southeast Minnesota

CITY           SKY/WX    TMP DP  RH WIND       PRES   REMARKS
ROCHESTER      LGT RAIN  36  35  96 S14G25    29.77S FOG
RED WING       RAIN      39  37  93 S8        29.76F
STANTON        DRIZZLE   39  36  90 S12G17    29.73S
DODGE CENTER   LGT RAIN  37  37 100 S14       29.75S
WINONA         LGT RAIN  37  34  87 SE10G17   29.82R
AUSTIN         DRIZZLE   37  36  93 S9        29.75S
PRESTON        CLOUDY    35  34  96 S18G24    29.79R FOG     WCI  25
$$
ABBREVIATIONS USED IN REMARKS
   TC - TEMPERATURES IN CELSIUS
  WCI - WIND CHILL INDEX
   HX - HEAT INDEX
  VSB - VISIBILITY
$$


USA.gov is the U.S. government's official web portal to all federal, state and local government web resources and services.